User: anonymous   Login
Location: Unspecified
(0.0000°N, 0.0000°E)
Time: 19:35:34
(UTC+00:00)
Language:

OBJECT NU - Orbit

View from above orbital plane
View from above orbital plane
View from above satellite
View from above satellite

Ground track
Ground track

The orbit data is extracted from the following two-line orbital elements,

1 43546U 98067NU  18351.00156889  .00005544  00000-0  77634-4 0  9996
2 43546  51.6373 185.0233 0006432 158.4647 201.6617 15.58507356 24296
Epoch (UTC): 17 December 2018 00:02:15
Eccentricity: 0.0006432
inclination: 51.6373°
perigee height: 387 km
apogee height: 396 km
right ascension of ascending node: 185.0233°
argument of perigee: 158.4647°
revolutions per day: 15.58507356
mean anomaly at epoch: 201.6617°
orbit number at epoch: 2429

The dashed part of the orbit path shows where the satellite is in the earth's shadow,  

DLR